Regional Weather Roundup
Issued by NWS

Home | Current Version | Previous Version | Text Only | Print | Product List | Glossary Off
Versions: 1 2 3 4 5 6 7 8 9 10 11 12 13 14 15 16 17 18 19 20 21 22 23 24 25 26 27 28 29 30 31 32 33 34 35 36 37 38 39 40 41 42 43 44 45 46 47 48 49 50

000
ASUS45 KSLC 271410
RWRUT

UTAH REGIONAL WEATHER ROUNDUP
NATIONAL WEATHER SERVICE SALT LAKE CITY UT
800 AM MDT WED MAY 27 2015

UTZ001>011-023>025-271500-

NORTHERN UTAH

CITY           SKY/WX    TMP DP  RH WIND       PRES   REMARKS
BRIGHAM CITY   PTSUNNY   53  49  87 CALM      30.08R
HILL AFB       PTSUNNY   53  46  78 SE10      30.08R
LOGAN          PTSUNNY   46  45  96 CALM      30.08S
OGDEN          PTSUNNY   55  47  74 SE8       30.07R
PROVO AIRPORT  MOSUNNY   52  45  76 E5        30.11R
SALT LAKE CITY PTSUNNY   56  47  71 SE8       30.07R
VERNAL         MOSUNNY   51  45  79 CALM      30.15R
WENDOVER       CLOUDY    52  46  82 SE5       30.06S
HEBER CITY     FOG       43  41  93 CALM      30.14R VSB<1/4
WEST JORDAN    SUNNY     55  48  76 SE9       30.09R

$$

UTZ012>022-026-027-271500-

SOUTHERN/CENTRAL UTAH

CITY           SKY/WX    TMP DP  RH WIND       PRES   REMARKS
BLANDING       SUNNY     55  44  65 CALM      30.23S
BRYCE CANYON   MOSUNNY   45  38  76 CALM      30.23R
CEDAR CITY     SUNNY     52  41  66 CALM      30.12R
DELTA          MOSUNNY   52  44  74 NE8       30.09R
HANKSVILLE     MOSUNNY   59  45  58 N3        30.12S
MILFORD        PTSUNNY   52  45  77 S9        30.08S
MOAB/CYNLANDS  SUNNY     58  46  64 CALM      30.11R
PRICE          MOSUNNY   53  40  61 NE3       30.16R
ST GEORGE      SUNNY     61  36  39 CALM      30.04R

$$

REGIONAL REPORTS     COLORADO/ARIZONA

CITY           SKY/WX    TMP DP  RH WIND       PRES   REMARKS
CRAIG, CO      MOSUNNY   53  43  68 CALM      30.17S
GRAND JUNCTION SUNNY     53  48  83 SE7       30.14R
RIFLE          MOSUNNY   49  44  83 CALM      30.19R
MONTROSE       SUNNY     51  45  79 NW3       30.19S
CORTEZ         MOSUNNY   51  42  71 CALM      30.18S
PAGE, AZ       MOSUNNY   62  45  53 CALM      30.09R
GRAND CANYON   MOSUNNY   50  37  61 CALM      30.19S
KINGMAN        PTSUNNY   61  28  28 SW5       30.01R
FLAGSTAFF      MOSUNNY   51  37  58 CALM      30.21R

$$

REGIONAL REPORTS    NEVADA/IDAHO/WYOMING

CITY           SKY/WX    TMP DP  RH WIND       PRES   REMARKS
LAS VEGAS, NV  PTSUNNY   73  33  23 SW6       29.90R
ELY            MOSUNNY   49  42  77 N5        30.14S
ELKO           PTSUNNY   50  46  86 E6        30.08R
POCATELLO, ID  MOSUNNY   50  47  89 NE3       30.06S
BURLEY         MOSUNNY   54  47  77 CALM      30.02R
EVANSTON, WY   MOSUNNY   45  41  86 CALM      30.17R
ROCK SPRINGS   SUNNY     47  41  80 SW12      30.14S
KEMMERER       MOSUNNY   45  41  87 N3        30.18R

$$


USA.gov is the U.S. government's official web portal to all federal, state and local government web resources and services.